Flag Weather past 2 weeks in Burnaby, British Columbia, Canada

Now
54 °F

Light rain. Mostly cloudy.


Feels Like: 49 °F
Forecast: 50 / 53 °F
Wind: 16 mph from East

Location: Vancouver International Air-Port

Current Time: Oct 30, 2014 at 10:58:11 AM

Latest Report: Oct 30, 2014 at 10:00 AM


Visibility: 15 mi

Pressure: 29.80 "Hg

Humidity: 82%

Dew point: 48 °F

Location of BurnabyLocation

Historic Weather in Burnaby — Graph

°F

Burnaby temperature yesterday

Maximum temperature yesterday: 63 °F (at 2:00 PM)
Minimum temperature yesterday: 52 °F (at 11:00 PM)
Average temperature yesterday: 57 °F

Past Weeks' High & Low Weather Summary

 TemperatureHumidityPressure
High68 °F (Oct 19, 12:00 PM)100% (Oct 15, 1:00 PM)30.15 "Hg (Oct 15, 1:00 PM)
Low41 °F (Oct 26, 5:00 AM)56% (Oct 29, 3:00 PM)29.26 "Hg (Oct 25, 6:03 PM)
Average54 °F87%29.81 "Hg
* Reported Oct 15 9:00 AM — Oct 30 9:00 AM, Burnaby, Weather by CustomWeather, © 2014

Note: Actual official high and low records may vary slightly from our data, if they occured in-between our weather recording intervals... More about our weather records

Advertising

Burnaby weather history for previous 24 hours

 ConditionsComfort  
Time TempWeatherWind HumidityBarometerVisibility
9:00 AM
Oct 30
54 °FMostly cloudy.12 mph82%29.82 "Hg15 mi
8:00 AM54 °FLight rain. Mostly cloudy.13 mph82%29.84 "Hg15 mi
7:00 AM54 °FLight rain. Mostly cloudy.9 mph82%29.86 "Hg15 mi
6:00 AM54 °FPassing clouds.6 mph82%29.89 "Hg15 mi
5:00 AM54 °FMostly cloudy.3 mph82%29.93 "Hg15 mi
4:00 AM54 °FPassing clouds.8 mph82%29.96 "Hg15 mi
3:00 AM54 °FMostly cloudy.5 mph82%29.99 "Hg15 mi
2:00 AM54 °FMostly cloudy.7 mph82%30.00 "Hg15 mi
1:00 AM54 °FMostly cloudy.2 mph88%30.02 "Hg15 mi
12:00 AM54 °FMostly cloudy.7 mph88%30.03 "Hg15 mi
11:00 PM
Oct 29
52 °FPassing clouds.10 mph88%30.05 "Hg20 mi
10:00 PM55 °FPassing clouds.9 mph82%30.06 "Hg20 mi
9:00 PM55 °FMostly cloudy.9 mph82%30.06 "Hg15 mi
8:00 PM57 °FOvercast.8 mph77%30.08 "Hg20 mi
7:00 PM57 °FMostly cloudy.10 mph77%30.09 "Hg20 mi
6:00 PM57 °FMore clouds than sun.9 mph77%30.09 "Hg20 mi
5:00 PM59 °FPartly sunny.12 mph72%30.10 "Hg20 mi
4:00 PM59 °FPartly sunny.9 mph77%30.11 "Hg20 mi
3:00 PM63 °FScattered clouds.7 mph56%30.10 "Hg20 mi
2:00 PM63 °FScattered clouds.7 mph59%30.11 "Hg15 mi
1:00 PM61 °FScattered clouds.8 mph72%30.10 "Hg15 mi
12:00 PM61 °FScattered clouds.7 mph77%30.08 "Hg15 mi
11:00 AM59 °FBroken clouds.8 mph77%30.07 "Hg15 mi
10:00 AM55 °FBroken clouds.5 mph88%30.05 "Hg15 mi
Weather by CustomWeather, © 2014

See weather overviewHow to use our weather pages